This is the latest recevied weather packets stored in our database for station/object SV9TNF-51. If no packets are shown the sender has not sent any weather packets the latest 10 day(s).
| Time | Temp. | Humidity | Pressure | Rain* | Wind** | Luminosity | Snow |
|---|---|---|---|---|---|---|---|
| 1788426250 | 32.22° C | 47% | 1010.5 hPa | 0 mm | 1.79 m/s, 125° | - | - |
| 1788425950 | 32.22° C | 47% | 1010.8 hPa | 0 mm | 4.92 m/s, 334° | - | - |
| 1788425649 | 31.67° C | 48% | 1010.8 hPa | 0 mm | 8.94 m/s, 341° | - | - |
| 1788425349 | 32.22° C | 47% | 1010.8 hPa | 0 mm | 4.92 m/s, 315° | - | - |
| 1788425049 | 32.22° C | 46% | 1010.8 hPa | 0 mm | 3.13 m/s, 123° | - | - |
| 1788424749 | 33.33° C | 45% | 1010.8 hPa | 0 mm | 0 m/s | - | - |
| 1788424449 | 32.78° C | 45% | 1010.8 hPa | 0 mm | 1.79 m/s, 189° | - | - |
| 1788424149 | 32.22° C | 45% | 1010.8 hPa | 0 mm | 5.36 m/s, 302° | - | - |
| 1788423849 | 32.78° C | 45% | 1010.8 hPa | 0 mm | 1.79 m/s, 117° | - | - |
| 1788423549 | 32.78° C | 44% | 1010.8 hPa | 0 mm | 4.92 m/s, 271° | - | - |
| 1788423249 | 32.22° C | 44% | 1010.8 hPa | 0 mm | 3.58 m/s, 131° | - | - |
| 1788422948 | 31.67° C | 45% | 1010.8 hPa | 0 mm | 4.92 m/s, 340° | - | - |
| 1788422648 | 32.22° C | 44% | 1010.8 hPa | 0 mm | 1.79 m/s, 330° | - | - |
| 1788422348 | 32.78° C | 44% | 1010.8 hPa | 0 mm | 1.34 m/s, 145° | - | - |
| 1788422048 | 32.22° C | 44% | 1010.8 hPa | 0 mm | 3.58 m/s, 91° | - | - |
| 1788421752 | 31.67° C | 44% | 1010.8 hPa | 0 mm | 5.36 m/s, 334° | - | - |
| 1788421448 | 31.67° C | 43% | 1010.8 hPa | 0 mm | 8.05 m/s, 247° | - | - |
| 1788421148 | 32.78° C | 41% | 1010.8 hPa | 0 mm | 3.13 m/s, 356° | - | - |
| 1788420848 | 32.78° C | 42% | 1010.8 hPa | 0 mm | 1.79 m/s, 128° | - | - |
| 1788420548 | 32.22° C | 42% | 1010.8 hPa | 0 mm | 0.89 m/s, 139° | - | - |
| 1788420247 | 31.67° C | 43% | 1010.8 hPa | 0 mm | 1.79 m/s, 128° | - | - |
| 1788419947 | 31.67° C | 43% | 1010.8 hPa | 0 mm | 3.13 m/s, 113° | - | - |
| 1788419647 | 31.67° C | 44% | 1010.8 hPa | 0 mm | 0 m/s | - | - |
| 1788419347 | 31.67° C | 42% | 1010.8 hPa | 0 mm | 1.34 m/s, 129° | - | - |
| 1788419047 | 30.56° C | 44% | 1010.8 hPa | 0 mm | 3.58 m/s, 70° | - | - |
* Rain latest hour (hover to see other rain measurements)
** Current wind speed in m/s (hover to see current wind gust speed)